ROMMA est une association bénévole à but non lucratif. Votre soutien est indispensable : ADHERER à ROMMA ou FAIRE un DON

Crempigny - (74, Haute-Savoie)

Albanais-Montagne des Princes (500 m)   Longitude: 05° 54' 5" E   Latitude: 45° 57' 0" N Station partenaire n°10
 

Détail journalier du     <<     >>

Température Precipitation Humidité Pression Vent Dir Rafale Dir. rafale Ensol. 20 cm au dessus du sol
Heure (°C) (mm) (%) (hPa) (km/h) (km/h) (min) (°C)
01:00 4.208210184NNE13N03.9
02:00 4.208210174N13NE03.9
03:00 4.108410174NNO11N03.9
04:00 3.908410173NNO10NNO03.9
05:00 3.908410173NNE8N03.3
06:00 3.708510171NNO6N0
07:00 3.708510162NNO8N0
08:00 3.608510163NNO8NNO0
09:00 3.9085101603NE0
10:00 4.608410162NE13ENE05.6
11:00 5.408410163NE13ENE1512.2
12:00 6.207910154NE13ENE308.3
13:00 6.508210143ENE11ENE109.4
14:00 7.807810144NE13E6010.6
15:00 8.207810134SE11ENE608.9
16:00 7.407710134NE15NNE455.6
17:00 5.208510133NE13NE53.9
18:00 4.108810133NO10NO03.3
19:00 3.709010132ONO6NO02.8
20:00 3.509110133NO11NNO02.8
21:00 3.409210134NO16NNE02.8
22:00 3.709210133NNO13N02.8
23:00 3.709310131NNO5NNO03.3
minuit 3.7094101303NNO03.3

Graphique du 20-11-2019

 

Serveur OMMA